Location: Newark
(33.1119°N, 7.4058°W)
Time: 19:07:54
(UTC+00:00)

Hubble Space Telescope - Pass Details

Date: 18 November 2019
Orbit: 536 x 540 km, 28.5° (Epoch: 14 December)

Event Time Altitude Azimuth Distance (km) Brightness Sun altitude
Rises 18:10:09 0° 219° (SW) 2,663 5.3 -9.5°
Reaches altitude 10° 18:13:05 10° 197° (SSW) 1,776 3.9 -10.0°
Maximum altitude 18:15:40 16° 158° (SSE) 1,430 2.9 -10.6°
Drops below altitude 10° 18:18:14 10° 119° (ESE) 1,780 3.0 -11.1°
Enters shadow 18:18:39 - 115° (ESE) 1,883 3.1 -11.2°
